Location: Northcutt
(34.7304°N, 84.4305°W)
Time: 14:32:11
(UTC+00:00)

Hubble Space Telescope - Pass Details

Date: 15 August 2022
Orbit: 531 x 535 km, 28.5° (Epoch: 27 September)

Event Time Altitude Azimuth Distance (km) Brightness Sun altitude
Rises 02:19:39 0° 258° (WSW) 2,667 4.9 -21.5°
Reaches altitude 10° 02:22:56 10° 231° (SW) 1,775 3.6 -22.0°
Enters shadow 02:24:11 13° 213° (SSW) 1,608 3.1 -22.3°
